This demonstration page uses our WeatherBlox Daily Observations layout. Learn more.

Left ArrowRight Arrow

Hourly Observations for June 15, 2020

Temp ( °F °C ) Dew Point ( °F °C ) Humidity (%) Winds ( mph kmh ) Pressure ( in mb ) Visibility ( mi km ) Precip ( " mm )
12:56 am 00:56 Cloudy 76 24.7 65 18.6 69 69 ESE 7 11 30.04 1017 10 16 0.00 0.00
1:56 am 01:56 Mostly Cloudy 76 24.3 65 18.5 70 70 SE 10 17 30.04 1017 10 16 0.00 0.00
2:56 am 02:56 Cloudy 76 24.6 66 18.7 70 70 SE 14 22 30.05 1018 10 16 0.00 0.00
3:56 am 03:56 Cloudy 76 24.2 66 18.8 72 72 SE 12 19 30.05 1018 10 16 0.00 0.00
4:56 am 04:56 Cloudy 76 24.2 65 18.4 70 70 SE 13 20 30.06 1018 10 16 0.00 0.00
5:56 am 05:56 Cloudy 73 22.7 65 18.6 78 78 SE 9 15 30.09 1019 10 16 0.00 0.00
6:56 am 06:56 Cloudy 73 22.7 66 18.8 79 79 SE 10 17 30.09 1019 10 16 0.00 0.00
7:56 am 07:56 Cloudy 75 23.8 66 18.9 74 74 SE 12 19 30.11 1020 10 16 0.00 0.00
11:56 am 11:56 Sunny 87 30.7 64 17.7 46 46 SSE 16 26 30.04 1017 10 16 0.00 0.00
12:56 pm 12:56 Sunny 89 31.5 64 17.7 44 44 SSE 16 26 30.04 1017 10 16 0.00 0.00
1:56 pm 13:56 Sunny 90 32.2 63 17.2 41 41 S 16 26 30.03 1017 10 16 0.00 0.00
2:56 pm 14:56 Mostly Sunny 90 32.3 63 17.3 41 41 SSE 17 28 30.02 1017 10 16 0.00 0.00
3:56 pm 15:56 Sunny 91 32.6 63 17.2 40 40 SE 17 28 30.02 1017 10 16 0.00 0.00
4:56 pm 16:56 Sunny 91 32.6 64 17.6 41 41 SSE 21 33 30.02 1017 10 16 0.00 0.00
5:56 pm 17:56 Sunny 90 32.4 64 17.8 42 42 SSE 20 31 30.06 1018 10 16 0.00 0.00
6:56 pm 18:56 Sunny 89 31.6 61 16.3 40 40 SSE 21 33 30.06 1018 10 16 0.00 0.00
7:56 pm 19:56 Sunny 86 30.2 63 17.3 46 46 SSE 15 24 30.08 1019 10 16 0.00 0.00
8:56 pm 20:56 Sunny 83 28.4 63 17.3 51 51 SE 10 17 30.09 1019 10 16 0.00 0.00
9:56 pm 21:56 Clear 80 26.5 65 18.1 60 60 SE 10 17 30.09 1019 10 16 0.00 0.00
10:56 pm 22:56 Clear 78 25.7 65 18.1 63 63 SE 10 17 30.10 1019 10 16 0.00 0.00
11:56 pm 23:56 Clear 77 24.8 64 18 66 66 SE 8 13 30.10 1019 10 16 0.00 0.00

Powered by AerisWeather